Flag for Honduras Weather past 2 weeks in Tegucigalpa, Honduras

Now
79 °F

Broken clouds.


Feels Like: 80 °F
Forecast: 66 / 82 °F
Wind: 16 mph from Northeast

Location: Tegucigalpa Airport

Current Time: Jul 23, 2014 at 12:06:40 PM

Latest Report: Jul 23, 2014 at 11:00 AM


Visibility: N/A

Pressure: 30.12 "Hg

Humidity: 51%

Dew point: 59 °F

Location of TegucigalpaLocation

Historic Weather in Tegucigalpa — Graph

°F

Tegucigalpa temperature yesterday

Maximum temperature yesterday: 82 °F (at 11:00 AM)
Minimum temperature yesterday: 64 °F (at 5:00 AM)
Average temperature yesterday: 71 °F

Past Weeks' High & Low Weather Summary

 TemperatureHumidityPressure
High88 °F (Jul 16, 12:00 PM)100% (Jul 14, 1:00 AM)30.18 "Hg (Jul 14, 1:00 AM)
Low61 °F (Jul 16, 5:00 AM)35% (Jul 15, 1:00 PM)29.89 "Hg (Jul 19, 8:00 AM)
Average75 °F69%30.11 "Hg
* Reported Jul 8 11:00 AM — Jul 23 11:00 AM, Tegucigalpa, Weather by CustomWeather, © 2014

Note: Actual official high and low records may vary slightly from our data, if they occured in-between our weather recording intervals... More about our weather records

Advertising

Tegucigalpa weather history for previous 24 hours

 ConditionsComfort  
Time TempWeatherWind HumidityBarometerVisibility
11:00 AM
Jul 23
79 °FBroken clouds.16 mph51%30.12 "HgN/A
10:00 AM77 °FBroken clouds.12 mph54%30.12 "HgN/A
9:00 AM75 °FBroken clouds.12 mph65%30.12 "HgN/A
8:00 AM72 °FBroken clouds.12 mph78%30.12 "HgN/A
7:00 AM70 °FBroken clouds.7 mph83%30.15 "HgN/A
6:00 AM70 °FBroken clouds.5 mph73%30.12 "HgN/A
5:00 AM68 °FPassing clouds.No wind83%30.12 "HgN/A
4:00 AM68 °FPassing clouds.7 mph83%30.09 "HgN/A
3:00 AM68 °FPassing clouds.5 mph83%30.12 "HgN/A
2:00 AM70 °FPassing clouds.5 mph83%30.12 "HgN/A
12:00 AM70 °FPassing clouds.9 mph88%30.15 "HgN/A
11:00 PM
Jul 22
73 °FPassing clouds.5 mph74%30.15 "HgN/A
10:00 PM73 °FPassing clouds.7 mph74%30.12 "HgN/A
9:00 PM73 °FPassing clouds.14 mph74%30.12 "HgN/A
8:00 PM73 °FPartly cloudy.9 mph78%30.09 "HgN/A
7:00 PM73 °FPartly cloudy.14 mph74%30.09 "HgN/A
6:00 PM75 °FBroken clouds.16 mph69%30.07 "HgN/A
Weather by CustomWeather, © 2014

See weather overviewHow to use our weather pages